Última Atualização: 15:20 - 22/01/2019 - Horário Brasileiro de Verão

Estação Hora Leitura 15 min 1 h 4 h 24 h 96 h No Mês
1 Vidigal 15:15 0,0 0,0 0,0 0,0 0,0 7,8
2 Urca 15:15 0,0 0,0 0,0 0,0 0,0 2,8
3 Rocinha 15:15 0,0 0,0 0,0 0,0 0,0 9,6
4 Tijuca 15:15 0,0 0,0 0,0 0,0 0,0 3,4
5 Santa Teresa 15:15 0,0 0,0 0,0 0,0 0,4 4,6
6 Copacabana 15:15 0,0 0,0 0,0 0,0 0,0 7,2
7 Grajaú 15:15 0,0 0,0 0,0 0,0 0,0 16,6
8 Ilha do Governador 15:15 0,0 0,0 0,0 0,0 0,0 35,0
9 Penha 15:15 0,0 0,0 0,0 0,0 0,2 31,0
10 Madureira 15:15 0,0 0,0 0,0 0,0 0,0 12,2
11 Irajá 15:15 0,0 0,0 0,0 0,2 0,4 22,6
12 Bangu 15:15 0,0 0,0 0,0 0,0 0,0 21,8
13 Piedade 15:15 0,0 0,0 0,0 0,0 0,0 10,2
14 Jacarepaguá/Tanque 15:15 0,0 0,0 0,0 0,0 0,4 3,2
15 Saúde 15:15 0,0 0,0 0,0 0,0 0,0 7,2
16 Jardim Botânico 15:15 0,0 0,0 0,0 0,0 0,0 8,2
17 Barra/Barrinha 15:15 0,0 0,0 0,0 0,0 0,0 3,8
18 Jacarepaguá/Cidade de Deus 15:15 0,0 0,0 0,0 0,0 0,0 7,6
19 Barra/Riocentro 15:15 0,0 0,0 0,0 0,0 0,0 8,2
20 Guaratiba 15:15 0,0 0,0 0,0 0,0 0,0 40,4
21 Est. Grajaú/Jacarepaguá 15:15 0,0 0,0 0,0 0,0 0,0 3,6
22 Santa Cruz 15:15 0,0 0,0 0,0 0,0 0,2 30,8
23 Grande Méier 15:15 0,0 0,0 0,0 0,0 0,0 25,2
24 Anchieta 15:15 0,0 0,0 0,0 2,2 2,2 75,6
25 Grota Funda 15:15 0,0 0,0 0,0 0,0 0,0 12,6
26 Campo Grande 15:15 0,0 0,0 0,0 0,0 0,0 17,2
27 Sepetiba 15:15 0,0 0,0 0,0 0,0 0,0 20,8
28 Alto da Boa Vista 15:15 0,0 0,0 0,0 0,0 0,0 8,6
29 Av. Brasil/Mendanha 15:15 0,0 0,0 0,0 0,2 0,2 38,8
30 Recreio dos Bandeirantes 15:15 0,0 0,0 0,0 0,0 0,0 11,2
31 Laranjeiras 15:15 0,0 0,0 0,0 0,0 0,2 3,0
32 São Cristóvão 15:15 0,0 0,0 0,0 0,0 0,0 14,6
33 Tijuca/Muda 15:15 0,0 0,0 0,0 0,0 0,0 8,4
Dados Meteorológicos
Estação Hora Direção Vento (graus) Velocidade Vento (Km/h) Temperatura (celsius) Pressão (hPa) Umidade (%)
11 Irajá 15:15 - - 33,7 - -
16 Jardim Botânico 15:15 - - 32,3 - -
19 Barra/Riocentro 15:15 - - - - -
20 Guaratiba 15:15 240,8 12,3 31,0 1010,3 -
22 Santa Cruz 15:15 - - 34,2 - 58,8
28 Alto da Boa Vista 15:15 - - 31,8 - 56,2
32 São Cristóvão 15:15 306,0 9,9 35,1 1008,9 43,8